Location: Street
(51.1247°N, 2.7429°W)
Time: 19:53:28
(UTC+01:00)

ITAMSAT 1 - Visible Passes

Search period start: 30 May 2024 00:00
Search period end: 09 June 2024 00:00
Orbit: 781 x 796 km, 98.8° (Epoch: 30 May)

Date Brightness Start Highest point End Pass type
(mag) Time Alt. Az. Time Alt. Az. Time Alt. Az.
30 May 9.6 22:38:03 10° SSW 22:42:16 25° W 22:46:29 10° NW visible
31 May 8.8 22:07:13 10° S 22:12:07 42° W 22:17:02 10° NNW visible
01 Jun 10.2 23:20:37 10° WSW 23:22:28 12° W 23:24:19 10° WNW visible
02 Jun 9.8 22:48:16 10° SW 22:52:07 21° W 22:56:00 10° NW visible
03 Jun 9.1 22:17:12 10° SSW 22:21:56 35° W 22:26:41 10° NNW visible
05 Jun 10.0 22:58:34 10° SW 23:01:59 18° W 23:05:25 10° NW visible
06 Jun 9.3 22:27:14 10° SSW 22:31:45 30° W 22:36:17 10° NNW visible
08 Jun 10.1 23:09:02 10° WSW 23:11:52 15° W 23:14:43 10° NW visible
